Home > Weather > Spokane > Past weeks

Flag for USA Past Weather in Spokane, Washington, USA — Yesterday and Last 2 Weeks

Now
53 °F

Clear.


Feels Like: 52 °F
Forecast: 44 / 77 °F
Wind: 5 mph from Northeast

Location: Felts Field

Current Time: May 31, 2016 at 12:50:08 AM

Latest Report: May 30, 2016 at 11:53 PM


Visibility: 10 mi

Pressure: 30.16 "Hg (28.17 "Hg at 569m altitude)

Humidity: 56%

Dew Point: 38 °F

Location of SpokaneLocation

Past Weather in Spokane — Graph

°F

Spokane Temperature Yesterday

Maximum temperature yesterday: 72 °F (at 3:53 PM)
Minimum temperature yesterday: 45 °F (at 4:53 AM)
Average temperature yesterday: 59 °F

High & Low Weather Summary for the Past Weeks

 TemperatureHumidityPressure
High79 °F (May 18, 1:53 PM)93% (May 17, 5:53 AM)30.22 "Hg (May 17, 5:53 AM)
Low40 °F (May 20, 4:53 AM)23% (May 30, 4:53 PM)29.61 "Hg (May 20, 4:53 PM)
Average58 °F61%29.92 "Hg
* Reported May 15 11:53 PM — May 30 11:53 PM, Spokane, Weather by CustomWeather, © 2016

Note: Actual official high and low records may vary slightly from our data, if they occured in-between our weather recording intervals... More about our weather records

Advertising

Spokane Weather History for the Previous 24 Hours

Scroll right to see more
 ConditionsComfort  
Time TempWeatherWind HumidityBarometerVisibility
11:53 PM
Mon, May 30
53 °FClear.5 mph56%30.16 "Hg10 mi
10:53 PM53 °FClear.3 mph61%30.16 "Hg10 mi
9:53 PM54 °FClear.No wind62%30.16 "Hg10 mi
8:53 PM59 °FSunny.No wind44%30.14 "Hg10 mi
7:53 PM63 °FSunny.No wind41%30.14 "Hg10 mi
6:53 PM71 °FPassing clouds.5 mph24%30.14 "Hg10 mi
5:53 PM72 °FPassing clouds.3 mph23%30.14 "Hg10 mi
4:53 PM71 °FPassing clouds.10 mph23%30.16 "Hg10 mi
3:53 PM72 °FPassing clouds.9 mph25%30.16 "Hg10 mi
2:53 PM69 °FSunny.7 mph25%30.18 "Hg10 mi
1:53 PM67 °FPassing clouds.9 mph31%30.19 "Hg10 mi
12:53 PM68 °FPassing clouds.12 mph28%30.20 "Hg10 mi
11:53 AM63 °FSunny.7 mph37%30.21 "Hg10 mi
10:53 AM62 °FSunny.3 mph35%30.22 "Hg10 mi
9:53 AM59 °FSunny.3 mph42%30.22 "Hg10 mi
8:53 AM56 °FSunny.No wind51%30.22 "Hg10 mi
7:53 AM53 °FSunny.5 mph59%30.20 "Hg10 mi
6:53 AM50 °FSunny.5 mph63%30.19 "Hg10 mi
5:53 AM47 °FClear.3 mph71%30.17 "Hg10 mi
4:53 AM45 °FClear.6 mph76%30.15 "Hg10 mi
3:53 AM46 °FClear.3 mph73%30.14 "Hg10 mi
2:53 AM51 °FClear.7 mph61%30.11 "Hg10 mi
1:53 AM51 °FClear.5 mph63%30.09 "Hg10 mi
12:53 AM52 °FClear.5 mph61%30.08 "Hg10 mi
Weather by CustomWeather, © 2016

See weather overviewHow to use our weather pages